Aérodrome :
LOGIN :

S'inscrire | Disclaimer

   EN    FR    IT 

 










Légende :    VFR   VFR Marginal   IFR   IFR Intensif   IFR Très Intensif
Visi : 
Plafond : 
>= 8 km
>= 3000ft
5 à 8 km
1000 à 3000 ft
1500m à 5 km
500 à 1000 ft
800 à 1500m
200 à 500 ft
< 800m
< 200 ft
Symboles :   Orages  Brouillard  Fortes neiges  Fortes précipitations  Vent > 20 kt
SIGMETs :   Divers  Orages  Givrage  Turbulence  Onde Orograph.  Cendres Volcan.







- Altitude de l'aérodrome : 106 ft
- Code IATA : XDA
- Voir les cartes d'approche


LFBY - Dax Seyresse

DERNIER METAR :
  • 131500Z 29009KT 260V330 1500 -RA BR BKN008 OVC060 11/10 Q1006

METARs EXPIRÉS :
  • 131400Z 28009G21KT 250V330 1200 RA BR BKN006 OVC026 10/10 Q1005
  • 131330Z 30004KT 260V340 1200 RA BR BKN003 OVC026 10/10 Q1005
  • 131300Z 29007KT 260V330 1500 RA BR BKN004 OVC026 11/10 Q1004

TAF TAF LFBY
Valide du 13 à 09h jusqu'au 13 à 18h UTC


130800Z 1309/1318 12005KT 3000 -RA SCT026 BKN050
BECMG 1309/1311 27010G20KT 6000 -SHRA
TEMPO 1312/1318 2000 SHRA SCT015 BKN020
Pas de NOTAMs connus pour ce terrain.



MET'MAP, la Météo Aéronautique d'un coup d'oeil ! - Copyright ORBIFLY Décembre 2007 - Disclaimer

ORBIFLY MET'MAP TEAM :

Programmation & Développement : Alexandra Zaïnal
Conception & Développement : Baudouin d'Aumeries
Co-Programmation & Développement : Marc-Olivier Méhu
Soutien technique & logistique : Manuel Goepfert

Contact : metmap@orbifly.com




SOURCES & CREDITS :

   NOAA